Location: ??
(35.4032°N, 139.3073°E)
Time: 12:18:02
(UTC+00:00)

CZ-2D R/B - Pass Details

Date: 13 April 2024
Orbit: 791 x 842 km, 98.8° (Epoch: 27 May)

Event Time Altitude Azimuth Distance (km) Brightness Sun altitude
Rises 18:14:42 0° 348° (NNW) 3,348 5.6 -23.0°
Reaches altitude 10° 18:18:52 10° 316° (NW) 2,424 4.4 -22.2°
Enters shadow 18:19:32 11° 309° (NW) 2,364 4.3 -22.1°
